Bend, OR

2:52 AM PDT on July 22, 2017 (GMT -0700)
Bend Municipal

Weather History for KBDN - March, 2013

Change the Weather History Date:

Tuesday, March 19, 2013

  Actual Average (KRDM) Record (KRDM)
Temperature  
Mean Temperature 38 °F -  
Max Temperature 50 °F 53 °F 77 °F (1960)
Min Temperature 26 °F 27 °F 9 °F (2012)
Degree Days  
Heating Degree Days 27    
Moisture  
Dew Point 17 °F    
Average Humidity 46    
Maximum Humidity 76    
Minimum Humidity 17    
Precipitation  
Precipitation 0.05 in - - ()
Sea Level Pressure  
Sea Level Pressure 29.98 in    
Wind  
Wind Speed 2 mph (North)    
Max Wind Speed 14 mph    
Max Gust Speed 22 mph    
Visibility 10 miles    
Events Rain    
Averages and records for this station are not official NWS values.
T = Trace of Precipitation, MM = Missing Value Source: NWS Daily Summary

Daily Weather History Graph

Daily Weather History Graph

Search for Another Location

Airport or City:

Trip Planner

Search our weather history database for the weather conditions in past years. The results will help you decide how hot, cold, wet, or windy it might be!

Date:

Astronomy

Mar. 19, 2013 Rise Set
Actual Time 7:09 AM PDT 7:16 PM PDT
Civil Twilight 6:40 AM PDT 7:45 PM PDT
Nautical Twilight 6:06 AM PDT 8:19 PM PDT
Astronomical Twilight 5:32 AM PDT 8:53 PM PDT
Moon 11:52 AM PDT (3/19) 2:18 AM PDT (3/19)
Length of Visible Light 13h 04m
Length of Day
12h 07m
Waxing Crescent, 51% of the Moon is Illuminated
Mar 19
Waxing Crescent
Mar 27
Full
Apr 2
Last Quarter
Apr 10
New
Apr 18
First Quarter

Hourly Weather History & Observations

Time (PDT) Temp. Windchill Dew Point Humidity Pressure Visibility Wind Dir Wind Speed Gust Speed Precip Events Conditions
12:15 AM 32.0 °F 28.7 °F 14.0 °F 48% 30.13 in 10.0 mi WNW 3.5 mph - N/A   Clear
12:35 AM 32.0 °F - 14.0 °F 48% 30.13 in 10.0 mi Calm Calm - N/A   Clear
12:55 AM 26.6 °F - 14.0 °F 59% 30.12 in 10.0 mi Calm Calm - N/A   Clear
1:15 AM 26.6 °F - 12.2 °F 55% 30.12 in 10.0 mi Calm Calm - N/A   Clear
1:35 AM 26.6 °F - 10.4 °F 51% 30.12 in 10.0 mi Calm Calm - N/A   Clear
1:55 AM 26.6 °F - 10.4 °F 51% 30.12 in 10.0 mi Calm Calm - N/A   Clear
2:15 AM 26.6 °F - 10.4 °F 51% 30.11 in 10.0 mi Calm Calm - N/A   Clear
2:35 AM 28.4 °F - 12.2 °F 51% 30.11 in 10.0 mi Calm Calm - N/A   Scattered Clouds
2:55 AM 28.4 °F - 12.2 °F 51% 30.11 in 10.0 mi Calm Calm - N/A   Mostly Cloudy
3:15 AM 28.4 °F - 12.2 °F 51% 30.11 in 10.0 mi Calm Calm - N/A   Partly Cloudy
3:35 AM 28.4 °F - 12.2 °F 51% 30.10 in 10.0 mi Calm Calm - N/A   Clear
3:55 AM 28.4 °F - 12.2 °F 51% 30.10 in 10.0 mi Calm Calm - N/A   Clear
4:15 AM 26.6 °F - 12.2 °F 55% 30.09 in 10.0 mi Calm Calm - N/A   Clear
4:55 AM 28.4 °F - 12.2 °F 51% 30.09 in 10.0 mi Calm Calm - N/A   Scattered Clouds
5:15 AM 28.4 °F - 12.2 °F 51% 30.09 in 10.0 mi Calm Calm - N/A   Scattered Clouds
5:35 AM 28.4 °F - 14.0 °F 55% 30.09 in 10.0 mi Calm Calm - N/A   Clear
5:55 AM 28.4 °F - 14.0 °F 55% 30.09 in 10.0 mi Calm Calm - N/A   Partly Cloudy
6:15 AM 28.4 °F - 14.0 °F 55% 30.09 in 10.0 mi Calm Calm - N/A   Clear
6:35 AM 30.2 °F - 14.0 °F 51% 30.09 in 10.0 mi Calm Calm - N/A   Partly Cloudy
6:55 AM 32.0 °F - 14.0 °F 48% 30.09 in 10.0 mi Calm Calm - N/A   Clear
7:15 AM 30.2 °F - 14.0 °F 51% 30.08 in 10.0 mi Calm Calm - N/A   Clear
7:35 AM 32.0 °F - 14.0 °F 48% 30.08 in 10.0 mi Calm Calm - N/A   Clear
7:55 AM 32.0 °F - 14.0 °F 48% 30.08 in 10.0 mi Calm Calm - N/A   Scattered Clouds
8:15 AM 32.0 °F - 14.0 °F 48% 30.09 in 10.0 mi Calm Calm - N/A   Mostly Cloudy
8:35 AM 32.0 °F - 14.0 °F 48% 30.08 in 6.0 mi Calm Calm - N/A   Haze
8:55 AM 32.0 °F - 14.0 °F 48% 30.09 in 10.0 mi Calm Calm - N/A   Scattered Clouds
9:15 AM 35.6 °F - 14.0 °F 41% 30.09 in 10.0 mi Calm Calm - N/A   Partly Cloudy
9:35 AM 35.6 °F - 15.8 °F 44% 30.08 in 10.0 mi Calm Calm - N/A   Clear
9:55 AM 35.6 °F - 14.0 °F 41% 30.08 in 10.0 mi Calm Calm - N/A   Partly Cloudy
10:15 AM 35.6 °F - 14.0 °F 41% 30.07 in 10.0 mi Calm Calm - N/A   Partly Cloudy
10:35 AM 35.6 °F - 14.0 °F 41% 30.07 in 10.0 mi Calm Calm - N/A   Scattered Clouds
10:55 AM 37.4 °F - 12.2 °F 36% 30.06 in 10.0 mi Calm Calm - N/A   Partly Cloudy
11:15 AM 39.2 °F - 10.4 °F 31% 30.05 in 10.0 mi Calm Calm - N/A   Partly Cloudy
11:35 AM 41.0 °F 38.0 °F 10.4 °F 29% 30.05 in 10.0 mi NNW 4.6 mph - N/A   Scattered Clouds
11:55 AM 41.0 °F 38.0 °F 8.6 °F 26% 30.04 in 10.0 mi NNW 4.6 mph - N/A   Scattered Clouds
12:15 PM 42.8 °F - 6.8 °F 23% 30.03 in 10.0 mi Calm Calm - N/A   Partly Cloudy
12:35 PM 44.6 °F 43.1 °F 6.8 °F 21% 30.01 in 10.0 mi NE 3.5 mph - N/A   Partly Cloudy
12:55 PM 44.6 °F 42.2 °F 6.8 °F 21% 30.01 in 10.0 mi North 4.6 mph - N/A   Partly Cloudy
1:15 PM 46.4 °F 45.2 °F 5.0 °F 18% 30.00 in 10.0 mi North 3.5 mph - N/A   Partly Cloudy
1:35 PM 46.4 °F - 5.0 °F 18% 29.99 in 10.0 mi Calm Calm - N/A   Scattered Clouds
1:55 PM 48.2 °F - 5.0 °F 17% 29.98 in 10.0 mi Calm Calm - N/A   Partly Cloudy
2:15 PM 48.2 °F - 5.0 °F 17% 29.97 in 10.0 mi NNW 4.6 mph - N/A   Scattered Clouds
2:35 PM 50.0 °F - 6.8 °F 17% 29.95 in 10.0 mi North 4.6 mph - N/A   Partly Cloudy
2:55 PM 50.0 °F - 6.8 °F 17% 29.94 in 10.0 mi NE 5.8 mph - N/A   Scattered Clouds
3:15 PM 50.0 °F - 8.6 °F 19% 29.93 in 10.0 mi NNE 6.9 mph - N/A   Mostly Cloudy
3:35 PM 50.0 °F - 10.4 °F 20% 29.92 in 10.0 mi North 10.4 mph - N/A   Scattered Clouds
3:55 PM 48.2 °F - 10.4 °F 22% 29.92 in 10.0 mi North 8.1 mph - N/A   Scattered Clouds
4:15 PM 48.2 °F - 10.4 °F 22% 29.90 in 10.0 mi North 6.9 mph - N/A   Scattered Clouds
4:35 PM 48.2 °F - 10.4 °F 22% 29.89 in 10.0 mi North 6.9 mph - N/A   Partly Cloudy
4:55 PM 48.2 °F - 10.4 °F 22% 29.88 in 10.0 mi North 6.9 mph - N/A   Partly Cloudy
5:15 PM 46.4 °F - 10.4 °F 23% 29.88 in 10.0 mi Calm Calm - N/A   Partly Cloudy
5:35 PM 46.4 °F 44.3 °F 10.4 °F 23% 29.88 in 10.0 mi West 4.6 mph - N/A Rain Light Rain
5:55 PM 44.6 °F - 28.4 °F 53% 29.88 in 5.0 mi Calm Calm - 0.01 in Rain Light Rain
6:15 PM 41.0 °F 39.0 °F 28.4 °F 61% 29.87 in 5.0 mi NNW 3.5 mph - N/A Rain Light Rain
6:55 PM 41.0 °F 38.0 °F 32.0 °F 70% 29.85 in 3.0 mi SE 4.6 mph - 0.04 in Rain Light Rain
7:15 PM 39.2 °F 35.9 °F 32.0 °F 75% 29.83 in 10.0 mi ESE 4.6 mph - N/A   Scattered Clouds
7:35 PM 39.2 °F - 32.0 °F 75% 29.84 in 10.0 mi Calm Calm - N/A   Scattered Clouds
7:55 PM 39.2 °F - 32.0 °F 75% 29.83 in 6.0 mi Calm Calm - N/A Rain Light Rain
8:15 PM 39.2 °F 35.9 °F 32.0 °F 75% 29.82 in 10.0 mi SSE 4.6 mph - N/A Rain Light Rain
8:35 PM 39.2 °F - 32.0 °F 75% 29.81 in 10.0 mi Calm Calm - N/A   Partly Cloudy
8:55 PM 39.2 °F - 32.0 °F 75% 29.81 in 10.0 mi Calm Calm - N/A   Partly Cloudy
9:15 PM 39.2 °F - 32.0 °F 75% 29.80 in 10.0 mi Calm Calm - N/A   Mostly Cloudy
9:35 PM 39.2 °F - 32.0 °F 75% 29.80 in 10.0 mi Calm Calm - N/A   Mostly Cloudy
9:55 PM 41.0 °F - 33.8 °F 76% 29.79 in 10.0 mi Calm Calm - N/A   Overcast
10:15 PM 42.8 °F 38.0 °F 33.8 °F 70% 29.78 in 10.0 mi South 8.1 mph - N/A Rain Light Rain
10:35 PM 42.8 °F 39.3 °F 33.8 °F 70% 29.77 in 10.0 mi SSE 5.8 mph - N/A   Partly Cloudy
10:55 PM 44.6 °F 40.2 °F 32.0 °F 61% 29.77 in 10.0 mi South 8.1 mph - N/A   Scattered Clouds
11:15 PM 46.4 °F 41.5 °F 32.0 °F 57% 29.76 in 10.0 mi SSW 10.4 mph - N/A   Scattered Clouds
11:35 PM 46.4 °F 44.3 °F 32.0 °F 57% 29.75 in 10.0 mi SSW 4.6 mph - N/A   Partly Cloudy
11:55 PM 46.4 °F 40.4 °F 32.0 °F 57% 29.75 in 10.0 mi SSW 13.8 mph 21.9 mph N/A   Mostly Cloudy